Casper, WY

2:40 AM MST on February 27, 2017 (GMT -0700)
Natrona County International

Weather History for KCPR - January, 2013

Change the Weather History Date:

Friday, January 4, 2013

  Actual Average Record
Temperature  
Mean Temperature 22 °F 24 °F  
Max Temperature 30 °F 35 °F 55 °F (1981)
Min Temperature 14 °F 14 °F -24 °F (1959)
Degree Days  
Heating Degree Days 43 41  
Month to date heating degree days 198 164  
Since 1 July heating degree days 2921 3293  
Cooling Degree Days 0 0  
Month to date cooling degree days 0 0  
Year to date cooling degree days 0 0  
Moisture  
Dew Point 3 °F    
Average Humidity 49    
Maximum Humidity 58    
Minimum Humidity 39    
Precipitation  
Precipitation 0.00 in 0.02 in 0.27 in (1996)
Month to date precipitation T 0.07  
Year to date precipitation T 0.07  
Snow  
Snow 0.00 in 0.30 in - ()
Month to date snowfall 0.1 1.3  
Since 1 July snowfall 18.8 31.8  
Snow Depth 1.00 in    
Sea Level Pressure  
Sea Level Pressure 30.27 in    
Wind  
Wind Speed 19 mph (SW)    
Max Wind Speed 29 mph    
Max Gust Speed 36 mph    
Visibility 10 miles    
Events      
T = Trace of Precipitation, MM = Missing Value Source: NWS Daily Summary

Daily Weather History Graph

Daily Weather History Graph

Search for Another Location

Airport or City:

Trip Planner

Search our weather history database for the weather conditions in past years. The results will help you decide how hot, cold, wet, or windy it might be!

Date:

Astronomy

Jan. 04, 2013 Rise Set
Actual Time 7:36 AM MST 4:45 PM MST
Civil Twilight 7:04 AM MST 5:17 PM MST
Nautical Twilight 6:29 AM MST 5:52 PM MST
Astronomical Twilight 5:55 AM MST 6:27 PM MST
Moon No Moon Rise 11:09 AM MST (1/4)
Length of Visible Light 10h 12m
Length of Day
9h 08m
Waning Gibbous, 54% of the Moon is Illuminated
Jan 4
Waning Gibbous
Jan 4
Last Quarter
Jan 11
New
Jan 18
First Quarter
Jan 26
Full

Hourly Weather History & Observations

Time (MST) Temp. Windchill Dew Point Humidity Pressure Visibility Wind Dir Wind Speed Gust Speed Precip Events Conditions
12:53 AM 17.1 °F 1.5 °F -0.0 °F 47% 30.34 in 10.0 mi SW 17.3 mph - N/A   Clear
1:53 AM 17.1 °F 0.6 °F -0.0 °F 47% 30.32 in 10.0 mi SW 19.6 mph 24.2 mph N/A   Clear
2:53 AM 16.0 °F -1.3 °F 1.0 °F 52% 30.32 in 10.0 mi SW 20.7 mph - N/A   Clear
3:53 AM 16.0 °F -1.3 °F -0.0 °F 49% 30.32 in 10.0 mi SW 20.7 mph - N/A   Clear
4:53 AM 17.1 °F -0.3 °F -0.0 °F 47% 30.30 in 10.0 mi SW 21.9 mph 31.1 mph N/A   Clear
5:53 AM 16.0 °F -2.1 °F -0.9 °F 47% 30.30 in 10.0 mi SW 23.0 mph 32.2 mph N/A   Clear
6:53 AM 16.0 °F -0.9 °F -0.9 °F 47% 30.30 in 10.0 mi SW 19.6 mph 28.8 mph N/A   Clear
7:53 AM 16.0 °F -1.3 °F -0.9 °F 47% 30.30 in 10.0 mi SW 20.7 mph 26.5 mph N/A   Clear
8:53 AM 18.0 °F 1.7 °F -0.0 °F 45% 30.30 in 10.0 mi SW 19.6 mph 29.9 mph N/A   Clear
9:53 AM 21.0 °F 3.9 °F 1.9 °F 44% 30.29 in 10.0 mi SW 25.3 mph 32.2 mph N/A   Clear
10:53 AM 24.1 °F 8.0 °F 5.0 °F 44% 30.26 in 10.0 mi SW 25.3 mph 32.2 mph N/A   Clear
11:53 AM 26.1 °F 11.6 °F 6.1 °F 43% 30.23 in 10.0 mi SW 21.9 mph 28.8 mph N/A   Clear
12:53 PM 28.0 °F 13.9 °F 8.1 °F 43% 30.18 in 10.0 mi SW 23.0 mph 33.4 mph N/A   Clear
1:53 PM 28.9 °F 14.8 °F 9.0 °F 43% 30.18 in 10.0 mi SW 24.2 mph 34.5 mph N/A   Clear
2:53 PM 30.0 °F 17.2 °F 9.0 °F 41% 30.19 in 10.0 mi SW 20.7 mph 25.3 mph N/A   Clear
3:53 PM 28.0 °F 16.1 °F 8.1 °F 43% 30.22 in 10.0 mi SSW 16.1 mph 21.9 mph N/A   Clear
4:53 PM 25.0 °F 11.3 °F 6.1 °F 45% 30.23 in 10.0 mi SW 18.4 mph 23.0 mph N/A   Clear
5:53 PM 23.0 °F 11.1 °F 3.9 °F 44% 30.25 in 10.0 mi WSW 12.7 mph - N/A   Clear
6:53 PM 19.0 °F 7.5 °F 3.9 °F 52% 30.27 in 10.0 mi West 10.4 mph - N/A   Clear
7:53 PM 17.1 °F 3.0 °F 1.9 °F 52% 30.30 in 10.0 mi WSW 13.8 mph - N/A   Clear
8:53 PM 14.0 °F 1.2 °F 1.0 °F 56% 30.30 in 10.0 mi SW 10.4 mph - N/A   Clear
9:53 PM 16.0 °F 2.3 °F 1.0 °F 52% 30.27 in 10.0 mi WSW 12.7 mph - N/A   Clear
10:53 PM 15.1 °F 0.5 °F 1.0 °F 54% 30.27 in 10.0 mi SW 13.8 mph - N/A   Clear
11:53 PM 16.0 °F 0.6 °F 1.0 °F 52% 30.25 in 10.0 mi SW 16.1 mph - N/A   Clear